Weather History for KFAF - March, 2013

Change the Weather History Date:

Tuesday, March 26, 2013

  Actual Average (KJGG) Record (KJGG)
Temperature  
Mean Temperature 42 °F -  
Max Temperature 50 °F 62 °F - (-1)
Min Temperature 35 °F 37 °F - (-1)
Degree Days  
Heating Degree Days 24    
Moisture  
Dew Point 30 °F    
Average Humidity 60    
Maximum Humidity 82    
Minimum Humidity 47    
Precipitation  
Precipitation 0.00 in - - ()
Sea Level Pressure  
Sea Level Pressure 29.88 in    
Wind  
Wind Speed 7 mph (NW)    
Max Wind Speed 14 mph    
Max Gust Speed -    
Visibility 10 miles    
Events Rain    
Averages and records for this station are not official NWS values.
T = Trace of Precipitation, MM = Missing Value Source: NWS Daily Summary

Daily Weather History Graph

Daily Weather History Graph

Search for Another Location

Airport or City:

Trip Planner

Search our weather history database for the weather conditions in past years. The results will help you decide how hot, cold, wet, or windy it might be!

Date:

Astronomy

Mar. 26, 2013 Rise Set
Actual Time 7:00 AM EDT 7:23 PM EDT
Civil Twilight 6:34 AM EDT 7:49 PM EDT
Nautical Twilight 6:04 AM EDT 8:20 PM EDT
Astronomical Twilight 5:33 AM EDT 8:51 PM EDT
Moon 6:57 PM EDT (3/26) 6:15 AM EDT (3/26)
Length of Visible Light 13h 15m
Length of Day
12h 23m
Waxing Gibbous, 99% of the Moon is Illuminated
Mar 26
Waxing Gibbous
Mar 27
Full
Apr 3
Last Quarter
Apr 10
New
Apr 18
First Quarter

Hourly Weather History & Observations

Time (EDT) Temp. Windchill Dew Point Humidity Pressure Visibility Wind Dir Wind Speed Gust Speed Precip Events Conditions
12:55 AM 38.8 °F 36.5 °F 33.6 °F 82% 29.74 in 10.0 mi WNW 3.5 mph - N/A   Overcast
1:55 AM 38.8 °F 34.6 °F 33.4 °F 81% 29.75 in 10.0 mi WNW 5.8 mph - N/A   Overcast
2:55 AM 38.8 °F 32.6 °F 30.6 °F 72% 29.76 in 10.0 mi WNW 9.2 mph - N/A   Overcast
3:55 AM 38.7 °F 32.4 °F 30.6 °F 73% 29.77 in 10.0 mi NW 9.2 mph - N/A   Overcast
4:55 AM 36.9 °F 31.4 °F 30.0 °F 76% 29.78 in 10.0 mi WNW 6.9 mph - N/A   Partly Cloudy
5:55 AM 36.1 °F - 28.8 °F 75% 29.80 in 10.0 mi Calm Calm - N/A   Clear
6:55 AM 35.4 °F 32.6 °F 27.7 °F 73% 29.82 in 10.0 mi Variable 3.5 mph - N/A   Clear
7:55 AM 35.1 °F 32.2 °F 28.6 °F 77% 29.84 in 10.0 mi Variable 3.5 mph - N/A   Partly Cloudy
8:55 AM 39.4 °F 35.2 °F 30.2 °F 70% 29.85 in 10.0 mi NW 5.8 mph - N/A   Clear
9:55 AM 42.8 °F 37.5 °F 32.0 °F 66% 29.87 in 10.0 mi NW 9.2 mph - N/A   Clear
10:55 AM 44.6 °F 38.8 °F 31.3 °F 60% 29.88 in 10.0 mi NW 11.5 mph - N/A   Overcast
11:55 AM 47.5 °F - 32.0 °F 55% 29.89 in 10.0 mi NW 9.2 mph - N/A   Partly Cloudy
12:55 PM 47.5 °F - 30.6 °F 52% 29.89 in 10.0 mi NW 8.1 mph - N/A   Mostly Cloudy
1:55 PM 47.1 °F - 31.1 °F 54% 29.88 in 10.0 mi WNW 10.4 mph - N/A   Overcast
2:55 PM 48.2 °F - 30.0 °F 49% 29.88 in 10.0 mi NW 9.2 mph - N/A   Overcast
3:01 PM 48.2 °F - 30.2 °F 50% 29.88 in 10.0 mi NNW 4.6 mph - N/A Rain Light Rain
3:11 PM 46.4 °F 40.7 °F 30.2 °F 53% 29.88 in 10.0 mi WNW 12.7 mph - N/A   Mostly Cloudy
3:21 PM 46.4 °F 43.5 °F 32.0 °F 57% 29.88 in 10.0 mi NW 5.8 mph - N/A Rain Light Rain
3:30 PM 48.2 °F - 30.2 °F 50% 29.88 in 10.0 mi Variable 5.8 mph - N/A   Mostly Cloudy
3:46 PM 46.4 °F 43.5 °F 30.2 °F 53% 29.88 in 10.0 mi NW 5.8 mph - N/A Rain Light Rain
3:55 PM 46.6 °F - 30.7 °F 54% 29.88 in 10.0 mi NW 13.8 mph - 0.00 in   Mostly Cloudy
4:55 PM 48.6 °F - 29.7 °F 48% 29.88 in 10.0 mi WNW 10.4 mph - N/A   Overcast
5:20 PM 46.4 °F 41.1 °F 30.2 °F 53% 29.90 in 10.0 mi NW 11.5 mph - N/A Rain Light Rain
5:31 PM 46.4 °F 43.5 °F 30.2 °F 53% 29.90 in 10.0 mi NNW 5.8 mph - N/A   Overcast
5:55 PM 46.8 °F - 29.8 °F 52% 29.91 in 10.0 mi NW 4.6 mph - 0.00 in   Overcast
6:55 PM 46.8 °F - 27.7 °F 47% 29.93 in 10.0 mi NW 11.5 mph - N/A   Overcast
7:55 PM 46.4 °F 41.9 °F 27.3 °F 47% 29.95 in 10.0 mi WNW 9.2 mph - N/A   Overcast
8:55 PM 45.9 °F 40.8 °F 28.6 °F 51% 29.98 in 10.0 mi NW 10.4 mph - N/A   Overcast
9:55 PM 43.5 °F 38.3 °F 28.9 °F 56% 30.00 in 10.0 mi NW 9.2 mph - N/A   Clear
10:55 PM 42.3 °F 39.4 °F 30.4 °F 63% 30.01 in 10.0 mi West 4.6 mph - N/A   Clear
11:55 PM 41.7 °F 36.1 °F 29.5 °F 62% 30.01 in 10.0 mi WNW 9.2 mph - N/A   Clear